Dublin, Ireland

10:00 PM IST on October 17, 2017 (GMT +0100)
Dublin International

Weather History for EIDW - June, 2012

Change the Weather History Date:

Friday, June 15, 2012

  Actual Average Record
Temperature  
Mean Temperature 54 °F -  
Max Temperature 59 °F 64 °F 68 °F (2004)
Min Temperature 50 °F 51 °F 39 °F (2008)
Degree Days  
Heating Degree Days 10    
Growing Degree Days 4 (Base 50)    
Moisture  
Dew Point 52 °F    
Average Humidity 93    
Maximum Humidity 100    
Minimum Humidity 77    
Precipitation  
Precipitation 0.04 in 0.07 in - ()
Sea Level Pressure  
Sea Level Pressure 29.44 in    
Wind  
Wind Speed 19 mph ()    
Max Wind Speed 25 mph    
Max Gust Speed -    
Visibility 6.0 miles    
Events Rain    
Averages and records for this station are not official NWS values.
T = Trace of Precipitation, MM = Missing Value Source: Averaged Metar Reports

Daily Weather History Graph

Daily Weather History Graph

Search for Another Location

Airport or City:

Trip Planner

Search our weather history database for the weather conditions in past years. The results will help you decide how hot, cold, wet, or windy it might be!

Date:

Astronomy

Jun. 15, 2012 Rise Set
Actual Time 4:55 AM IST 9:55 PM IST
Civil Twilight 4:03 AM IST 10:48 PM IST
Nautical Twilight 2:29 AM IST 12:22 AM IST
Astronomical Twilight Sun does not rise Sun does not rise
Moon 2:27 AM IST (6/15) 6:03 PM IST (6/15)
Length of Visible Light 18h 44m
Length of Day
16h 59m
Waning Crescent, 15% of the Moon is Illuminated
Jun 15
Waning Crescent
Jun 19
New
Jun 27
First Quarter
Jul 3
Full
Jul 11
Last Quarter

Hourly Weather History & Observations

Time (IST) Temp. Dew Point Humidity Pressure Visibility Wind Dir Wind Speed Gust Speed Precip Events Conditions
12:00 AM 51.8 °F 50.0 °F 94% 29.59 in 4.3 mi East 23.0 mph - N/A Rain Light Rain
12:30 AM 51.8 °F 51.8 °F 100% 29.59 in 4.3 mi East 25.3 mph - N/A Rain Light Rain
1:00 AM 51 °F 51 °F 99% 29.59 in 4 mi East 22.4 mph - - Rain Light Rain
1:00 AM 51.8 °F 51.8 °F 100% 29.56 in 4.3 mi East 21.9 mph - N/A Rain Light Rain
1:30 AM 51.8 °F 51.8 °F 100% 29.56 in 4.3 mi East 25.3 mph - N/A Rain Light Rain
2:00 AM 51.8 °F 51.8 °F 100% 29.56 in 6.2 mi ESE 23.0 mph - N/A Rain Light Rain
2:30 AM 51.8 °F 51.8 °F 100% 29.53 in 5.0 mi ESE 25.3 mph - N/A Rain Light Rain
3:00 AM 51.8 °F 51.8 °F 100% 29.53 in 6.2 mi ESE 18.4 mph - N/A   Mostly Cloudy
3:30 AM 51.8 °F 51.8 °F 100% 29.50 in 6.2 mi ESE 21.9 mph - N/A   Mostly Cloudy
4:00 AM 53.6 °F 51.8 °F 94% 29.50 in 6.2 mi ESE 19.6 mph - N/A   Mostly Cloudy
4:30 AM 53.6 °F 51.8 °F 94% 29.50 in 6.2 mi ESE 19.6 mph - N/A   Mostly Cloudy
5:00 AM 53.6 °F 51.8 °F 94% 29.47 in 6.2 mi ESE 20.7 mph - N/A   Mostly Cloudy
5:30 AM 53.6 °F 51.8 °F 94% 29.47 in 6.2 mi ESE 18.4 mph - N/A   Mostly Cloudy
6:00 AM 53.6 °F 51.8 °F 94% 29.47 in 6.2 mi ESE 20.7 mph - N/A   Mostly Cloudy
6:30 AM 53.6 °F 51.8 °F 94% 29.47 in 6.2 mi SE 19.6 mph - N/A Rain Light Rain
7:00 AM 53 °F 51 °F 92% 29.47 in 7 mi SE 22.4 mph - - Rain Light Rain
7:00 AM 53.6 °F 51.8 °F 94% 29.47 in 6.2 mi SE 23.0 mph - N/A Rain Light Rain
7:30 AM 53.6 °F 51.8 °F 94% 29.44 in 6.2 mi ESE 23.0 mph - N/A Rain Light Rain
8:00 AM 53.6 °F 51.8 °F 94% 29.44 in 6.2 mi ESE 24.2 mph - N/A Rain Light Rain
8:30 AM 51.8 °F 51.8 °F 100% 29.44 in 6.2 mi SE 23.0 mph - N/A Rain Light Rain
9:00 AM 53.6 °F 51.8 °F 94% 29.44 in 6.2 mi ESE 25.3 mph - N/A Rain Light Rain
9:30 AM 53.6 °F 51.8 °F 94% 29.44 in 5.6 mi ESE 24.2 mph - N/A Rain Light Rain
10:00 AM 53.6 °F 51.8 °F 94% 29.42 in 5.6 mi SE 21.9 mph - N/A Rain Light Rain
10:30 AM 53.6 °F 51.8 °F 94% 29.42 in 5.6 mi SE 24.2 mph - N/A Rain Light Rain
11:00 AM 53.6 °F 53.6 °F 100% 29.42 in 5.6 mi SE 23.0 mph - N/A Rain Light Rain
11:30 AM 53.6 °F 53.6 °F 100% 29.42 in 5.6 mi SE 20.7 mph - N/A   Light Drizzle
12:00 PM 53.6 °F 51.8 °F 94% 29.42 in 5.6 mi SE 19.6 mph - N/A   Light Drizzle
12:30 PM 53.6 °F 53.6 °F 100% 29.42 in 4.3 mi SE 19.6 mph - N/A   Light Drizzle
1:00 PM 55 °F 54 °F 93% 29.42 in 6 mi SE 17.9 mph - - Rain Light Drizzle
1:00 PM 55.4 °F 53.6 °F 94% 29.42 in 6.2 mi SE 17.3 mph - N/A   Light Drizzle
1:30 PM 55.4 °F 53.6 °F 94% 29.39 in 6.2 mi SE 17.3 mph - N/A Rain Light Rain
2:00 PM 55.4 °F 55.4 °F 100% 29.39 in 5.6 mi SE 15.0 mph - N/A   Light Drizzle
2:30 PM 57.2 °F 55.4 °F 94% 29.39 in 6.2 mi SE 18.4 mph - N/A   Mostly Cloudy
3:00 PM 57.2 °F 53.6 °F 88% 29.39 in 6.2 mi SE 18.4 mph - N/A Rain Light Rain
3:30 PM 59.0 °F 55.4 °F 88% 29.39 in 6.2 mi SE 16.1 mph - N/A   Mostly Cloudy
4:00 PM 59.0 °F 53.6 °F 82% 29.39 in 6.2 mi SE 17.3 mph - N/A   Scattered Clouds
4:30 PM 59.0 °F 53.6 °F 82% 29.39 in 6.2 mi SSE 16.1 mph - N/A   Mostly Cloudy
5:00 PM 59.0 °F 51.8 °F 77% 29.39 in 6.2 mi SSE 17.3 mph - N/A   Mostly Cloudy
5:30 PM 59.0 °F 51.8 °F 77% 29.39 in 6.2 mi SE 12.7 mph - N/A   Mostly Cloudy
6:00 PM 59.0 °F 51.8 °F 77% 29.39 in 6.2 mi SSE 16.1 mph - N/A   Mostly Cloudy
6:30 PM 59.0 °F 51.8 °F 77% 29.39 in 6.2 mi SSE 16.1 mph - N/A   Mostly Cloudy
7:00 PM 56 °F 52 °F 83% 29.40 in 14 mi SSE 13.4 mph - - Rain Light Rain Showers
7:00 PM 57.2 °F 51.8 °F 82% 29.39 in 6.2 mi SSE 13.8 mph - N/A   Mostly Cloudy
7:30 PM 55.4 °F 51.8 °F 88% 29.39 in 6.2 mi SE 16.1 mph - N/A   Mostly Cloudy
8:00 PM 55.4 °F 51.8 °F 88% 29.39 in 6.2 mi SE 12.7 mph - N/A Rain Light Rain
9:00 PM 53.6 °F 51.8 °F 94% 29.39 in 6.2 mi SE 13.8 mph - N/A Rain Light Rain
9:30 PM 53.6 °F 51.8 °F 94% 29.39 in 6.2 mi SE 16.1 mph - N/A Rain Light Rain
10:00 PM 53.6 °F 51.8 °F 94% 29.36 in 6.2 mi SE 13.8 mph - N/A   Mostly Cloudy
10:30 PM 53.6 °F 51.8 °F 94% 29.36 in 6.2 mi SE 12.7 mph - N/A   Mostly Cloudy
11:00 PM 53.6 °F 51.8 °F 94% 29.36 in 6.2 mi SSE 9.2 mph - N/A   Mostly Cloudy
11:30 PM 53.6 °F 51.8 °F 94% 29.36 in 6.2 mi SE 10.4 mph - N/A   Mostly Cloudy